Location: Newark
(21.1200°N, 73.4000°E)
Time: 04:04:49
(UTC+00:00)

Courier 1B Rocket - Pass Details

Date: 19 January 2020
Orbit: 920 x 1202 km, 28.2° (Epoch: 17 February)

Event Time Altitude Azimuth Distance (km) Brightness Sun altitude
Rises 07:43:55 0° 244° (WSW) 3,838 8.4 47.9°
Reaches altitude 10° 07:46:44 10° 243° (WSW) 2,840 7.9 47.8°
Maximum altitude 07:53:36 78° 158° (SSE) 1,008 6.3 47.5°
Drops below altitude 10° 08:00:02 10° 72° (ENE) 2,662 7.2 47.1°
Sets 08:02:36 0° 71° (ENE) 3,583 7.7 47.0°
